Weather History for Newport, AR

Change the Weather History Date:

Sunday, April 13, 2014

  Actual Average (KJBR) Record (KJBR)
Temperature  
Mean Temperature 67 °F 59 °F  
Max Temperature 72 °F 70 °F 87 °F (1965)
Min Temperature 62 °F 49 °F 30 °F (1957)
Degree Days  
Heating Degree Days 0 7  
Month to date heating degree days 115  
Since 1 July heating degree days 3535  
Cooling Degree Days 2 1  
Month to date cooling degree days 13  
Year to date cooling degree days 19  
Growing Degree Days 17 (Base 50)    
Moisture  
Dew Point 62 °F    
Average Humidity 84    
Maximum Humidity 100    
Minimum Humidity 68    
Precipitation  
Precipitation 1.07 in 0.16 in 2.42 in (1909)
Month to date precipitation 2.01  
Year to date precipitation 13.66  
Snow  
Snow 0.00 in 0.00 in T in (1957)
Month to date snowfall 0.0  
Since 1 July snowfall 4.8  
Snow Depth -    
Sea Level Pressure  
Sea Level Pressure 29.77 in    
Wind  
Wind Speed 20 mph (SSW)    
Max Wind Speed 29 mph    
Max Gust Speed 43 mph    
Visibility 8 miles    
Events Rain , Thunderstorm    
T = Trace of Precipitation, MM = Missing Value Source: NWS Daily Summary

Daily Weather History Graph

Daily Weather History Graph

Search for Another Location

Airport:

Trip Planner

Search our weather history database for the weather conditions in past years. The results will help you decide how hot, cold, wet, or windy it might be!

Date:

Astronomy

Apr. 13, 2014 Rise Set
Actual Time 6:34 AM CDT 7:36 PM CDT
Civil Twilight 6:08 AM CDT 8:02 PM CDT
Nautical Twilight 5:37 AM CDT 8:33 PM CDT
Astronomical Twilight 5:05 AM CDT 9:05 PM CDT
Moon 6:16 PM CDT (4/13) 5:30 AM CDT (4/13)
Length of Visible Light 13h 54m
Length of Day
13h 01m
Waxing Gibbous, 97% of the Moon is Illuminated
Apr 13
Waxing Gibbous
Apr 15
Full
Apr 22
Last Quarter
Apr 29
New
May 6
First Quarter

Hourly Weather History & Observations

Time (CDT) Temp. Dew Point Humidity Pressure Visibility Wind Dir Wind Speed Gust Speed Precip Events Conditions
12:56 AM 66.9 °F 55.9 °F 68% 29.87 in 10.0 mi South 16.1 mph - N/A   Clear
1:56 AM 66.9 °F 55.9 °F 68% 29.85 in 10.0 mi South 18.4 mph - N/A   Clear
2:56 AM 65.8 °F 55.9 °F 70% 29.85 in 10.0 mi SSW 16.1 mph 21.9 mph N/A   Clear
3:56 AM 65.8 °F 55.9 °F 70% 29.85 in 10.0 mi South 18.4 mph 26.5 mph N/A   Clear
4:56 AM 65.8 °F 56.8 °F 73% 29.83 in 10.0 mi South 19.6 mph - N/A   Clear
5:56 AM 64.9 °F 57.9 °F 78% 29.83 in 10.0 mi South 21.9 mph 28.8 mph N/A   Clear
6:56 AM 64.9 °F 59.0 °F 81% 29.84 in 10.0 mi South 21.9 mph 28.8 mph N/A   Scattered Clouds
7:05 AM 64.4 °F 60.8 °F 88% 29.85 in 10.0 mi South 19.6 mph 28.8 mph N/A   Mostly Cloudy
7:15 AM 64.4 °F 60.8 °F 88% 29.85 in 10.0 mi South 23.0 mph 29.9 mph N/A   Scattered Clouds
7:56 AM 65.8 °F 59.9 °F 81% 29.85 in 10.0 mi South 28.8 mph 34.5 mph N/A   Clear
8:42 AM 66.2 °F 60.8 °F 83% 29.86 in 10.0 mi South 28.8 mph 34.5 mph N/A   Mostly Cloudy
8:56 AM 68.0 °F 61.0 °F 78% 29.86 in 10.0 mi South 27.6 mph 33.4 mph N/A   Overcast
9:56 AM 68.0 °F 61.0 °F 78% 29.88 in 10.0 mi South 18.4 mph 26.5 mph N/A   Overcast
10:56 AM 70.0 °F 59.9 °F 70% 29.88 in 10.0 mi South 23.0 mph 34.5 mph N/A   Mostly Cloudy
11:56 AM 70.0 °F 59.9 °F 70% 29.88 in 10.0 mi SSW 24.2 mph - N/A   Overcast
12:56 PM 70.9 °F 61.0 °F 71% 29.86 in 10.0 mi South 19.6 mph 26.5 mph N/A   Mostly Cloudy
1:35 PM 71.6 °F 60.8 °F 69% 29.84 in 10.0 mi SSW 27.6 mph - N/A   Overcast
1:56 PM 72.9 °F 61.9 °F 68% 29.81 in 10.0 mi South 28.8 mph - N/A   Scattered Clouds
2:56 PM 72.9 °F 61.9 °F 68% 29.81 in 10.0 mi South 19.6 mph 31.1 mph N/A   Overcast
3:28 PM 71.6 °F 62.6 °F 73% 29.80 in 10.0 mi South 18.4 mph 28.8 mph N/A   Overcast
3:56 PM 70.9 °F 61.9 °F 73% 29.78 in 10.0 mi South 13.8 mph - N/A   Overcast
4:06 PM 71.6 °F 62.6 °F 73% 29.78 in 10.0 mi South 16.1 mph - N/A   Overcast
4:56 PM 72.0 °F 61.9 °F 70% 29.74 in 10.0 mi South 18.4 mph - N/A   Mostly Cloudy
5:38 PM 69.8 °F 64.4 °F 83% 29.72 in 8.0 mi SSE 21.9 mph - N/A Thunderstorm Thunderstorm
5:56 PM 68.9 °F 63.9 °F 84% 29.70 in 8.0 mi SSE 21.9 mph - N/A Thunderstorm Overcast
6:12 PM 68.0 °F 64.4 °F 88% 29.71 in 6.0 mi South 20.7 mph - 0.02 in   Overcast
6:25 PM 68.0 °F 64.4 °F 88% 29.70 in 6.0 mi South 20.7 mph - 0.03 in Thunderstorm Overcast
6:56 PM 68.0 °F 63.9 °F 87% 29.68 in 10.0 mi SSE 23.0 mph - 0.07 in Thunderstorm Thunderstorm
7:04 PM 68.0 °F 64.4 °F 88% 29.67 in 6.0 mi SSE 21.9 mph - 0.01 in   Overcast
7:17 PM 66.2 °F 64.4 °F 94% 29.66 in 5.0 mi SSE 19.6 mph - 0.04 in Thunderstorm Overcast
7:28 PM 66.2 °F 64.4 °F 94% 29.69 in 2.0 mi South 20.7 mph - 0.09 in Thunderstorm Overcast
7:48 PM 66.2 °F 66.2 °F 100% 29.71 in 1.8 mi SW 15.0 mph - 0.22 in   Overcast
7:56 PM 64.9 °F 64.9 °F 100% 29.70 in 4.0 mi West 10.4 mph - 0.25 in Thunderstorm Overcast
8:11 PM 64.4 °F 64.4 °F 100% 29.70 in 2.0 mi Variable 3.5 mph - 0.08 in Thunderstorm Overcast
8:17 PM 64.4 °F 64.4 °F 100% 29.74 in 1.8 mi West 15.0 mph - 0.14 in Thunderstorm Overcast
8:22 PM 64.4 °F 64.4 °F 100% 29.75 in 1.5 mi WSW 20.7 mph - 0.22 in   Overcast
8:25 PM 64.4 °F 64.4 °F 100% 29.74 in 1.0 mi WSW 19.6 mph 23.0 mph 0.31 in Thunderstorm Overcast
8:35 PM 64.4 °F 64.4 °F 100% 29.72 in 1.5 mi WSW 16.1 mph 21.9 mph 0.47 in Thunderstorm Overcast
8:45 PM 64.4 °F 64.4 °F 100% 29.70 in 1.2 mi West 19.6 mph 25.3 mph 0.61 in Thunderstorm Mostly Cloudy
8:56 PM 63.9 °F 63.9 °F 100% 29.69 in 4.0 mi SSW 15.0 mph - 0.68 in Rain , Thunderstorm Light Thunderstorms and Rain
9:04 PM 62.6 °F 62.6 °F 100% 29.70 in 10.0 mi South 17.3 mph - 0.01 in Rain , Thunderstorm Light Thunderstorms and Rain
9:19 PM 64.4 °F 64.4 °F 100% 29.70 in 10.0 mi South 25.3 mph 29.9 mph 0.03 in Rain Light Rain
9:56 PM 63.9 °F 61.9 °F 93% 29.70 in 6.0 mi SW 15.0 mph 25.3 mph 0.06 in Rain Light Rain
10:56 PM 63.9 °F 63.9 °F 100% 29.68 in 10.0 mi SSW 16.1 mph - 0.00 in   Partly Cloudy
11:56 PM 64.9 °F 54.9 °F 70% 29.74 in 10.0 mi WNW 26.5 mph 42.6 mph 0.01 in Thunderstorm Mostly Cloudy